Tracking 35237 objects as of 5-Sep-2026
HD Live streaming from Space Station
objects crossing your sky now

THOR AGENA B DEB

Track THOR AGENA B DEB now!
10-day predictions


NORAD ID: 742
Int'l Code: 1964-004C
Launch date: January 25, 1964
Source: United States (US)
Launch site: AIR FORCE WESTERN TEST RANGE (AFWTR)

Note: This is SATELLITE DEBRIS
Your satellite tracking list
Your tracking list is empty




NASA's NSSDC Master Catalog

Two Line Element Set (TLE):
1 00742U 64004C   26248.32246268  .00000066  00000-0  12058-3 0  9993
2 00742  81.4713 348.6090 0170173 283.3747  74.8456 13.26296575 27988
Source of the keplerian elements: AFSPC